Stations météo

réclame
Mon MeteoGroup
Herstmonceux, Grande-Bretagne (3882): Température de l'air & dewpoint: 19.03.2019 10:00:00 - 25.03.2019 10:00:00 (GMT)Herstmonceux, Grande-Bretagne (3882): Température de l'air -20cm & Température de l'air -100cm: 19.03.2019 10:00:00 - 25.03.2019 10:00:00 (GMT)Herstmonceux, Grande-Bretagne (3882): Vitesse du vent: 19.03.2019 10:00:00 - 25.03.2019 10:00:00 (GMT)Herstmonceux, Grande-Bretagne (3882): Direction du vent: 19.03.2019 10:00:00 - 25.03.2019 10:00:00 (GMT)Herstmonceux, Grande-Bretagne (3882): reduced air pressure: 19.03.2019 10:00:00 - 25.03.2019 10:00:00 (GMT)Herstmonceux, Grande-Bretagne (3882): visibility: 19.03.2019 10:00:00 - 25.03.2019 10:00:00 (GMT)Herstmonceux, Grande-Bretagne (3882): Ensoleillement: 19.03.2019 10:00:00 - 25.03.2019 10:00:00 (GMT)Herstmonceux, Grande-Bretagne (3882): Quantités de précipitations: 19.03.2019 10:00:00 - 25.03.2019 10:00:00 (GMT)
Date & Time tt [°C] td [°C] tt -20cm [°C] tt -100cm [°C] ff [km/h] ff [knt] dd ppp [hPa] vv [km] sd [min] rr [mm]
25.03.2019 10:00:00 9,6 1,8 - - 16 9 NNE 1031,5 21 60 0,0
25.03.2019 09:00:00 8,3 1,4 9,5 9,2 16 9 N 1031,0 15 60 0,0
25.03.2019 08:00:00 6,7 2,1 - - 13 7 N 1030,4 15 30 0,0
25.03.2019 07:00:00 5,3 2,0 - - 11 6 NNW 1029,5 15 0 0,0
25.03.2019 06:00:00 4,9 2,7 - - 9 5 NNW 1029,0 24 0 0,0
25.03.2019 05:00:00 4,8 3,2 - - 5 3 W 1028,6 22 0 0,0
25.03.2019 04:00:00 5,0 2,3 - - 9 5 W 1028,2 30 0 0,0
25.03.2019 03:00:00 4,3 1,7 - - 5 3 WNW 1028,2 35 0 0,0
25.03.2019 02:00:00 4,4 1,2 - - 5 3 W 1028,7 50 0 0,0
25.03.2019 01:00:00 5,2 0,7 - - 8 4 WNW 1028,8 45 0 0,0
25.03.2019 00:00:00 5,8 0,4 - - 8 4 WNW 1028,8 45 - 0,0
24.03.2019 23:00:00 6,3 0,3 - - 5 3 NNW 1028,9 50 0 0,0
24.03.2019 22:00:00 6,8 0,1 - - 8 4 NW 1029,1 30 0 0,0
24.03.2019 21:00:00 7,5 0,4 - - 5 3 NW 1029,0 35 0 0,0
24.03.2019 20:00:00 7,1 3,4 - - 5 3 NW 1029,0 16 0 0,0
24.03.2019 19:00:00 7,7 4,6 - - 9 5 W 1028,8 14 0 0,0
24.03.2019 18:00:00 9,4 4,1 - - 11 6 W 1028,4 18 42 0,0
24.03.2019 17:00:00 11,2 4,6 - - 11 6 WSW 1028,2 15 54 0,0
24.03.2019 16:00:00 12,7 5,9 - - 11 6 WSW 1028,4 18 36 0,0
24.03.2019 15:00:00 13,9 5,1 - - 9 5 SSE 1028,8 18 60 0,0
24.03.2019 14:00:00 13,5 2,7 - - 9 5 N 1029,3 20 60 0,0
24.03.2019 13:00:00 13,1 2,5 - - 5 3 NE 1030,1 14 60 0,0
24.03.2019 12:00:00 11,7 2,7 - - 11 6 N 1030,8 25 60 0,0
24.03.2019 11:00:00 11,0 1,2 - - 9 5 N 1031,2 29 60 0,0
24.03.2019 10:00:00 9,4 0,0 - - 9 5 N 1031,4 27 60 0,0
24.03.2019 09:00:00 7,4 3,5 9,5 9,2 4 2 NNE 1031,4 17 30 0,0
24.03.2019 08:00:00 5,4 5,1 - - 5 3 ENE 1031,4 17 0 0,0
24.03.2019 07:00:00 3,3 3,1 - - 8 4 NNE 1031,1 10 0 0,0
24.03.2019 06:00:00 2,3 1,9 - - 5 3 NNE 1030,4 3,6 0 0,0
24.03.2019 05:00:00 2,5 1,8 - - 4 2 NNE 1030,9 7 0 0,0
24.03.2019 04:00:00 3,3 2,2 - - 4 2 NNE 1031,0 10 0 0,0
24.03.2019 03:00:00 4,6 2,9 - - 8 4 NE 1031,2 11 0 0,0
24.03.2019 02:00:00 5,8 3,9 - - 5 3 NE 1031,5 13 0 0,0
24.03.2019 01:00:00 5,5 4,0 - - 8 4 NE 1031,9 10 0 0,0
24.03.2019 00:00:00 4,9 3,4 - - 4 2 NE 1032,1 12 - 0,0
23.03.2019 23:00:00 5,0 3,1 - - 5 3 NE 1032,3 12 0 0,0
23.03.2019 22:00:00 4,7 2,9 - - 5 3 NNE 1032,5 14 0 0,0
23.03.2019 21:00:00 4,9 2,3 - - 4 2 NE 1032,7 15 0 0,0
23.03.2019 20:00:00 5,8 2,3 - - 5 3 ENE 1032,7 16 0 0,0
23.03.2019 19:00:00 7,4 3,1 - - 8 4 E 1032,4 15 0 0,0
23.03.2019 18:00:00 9,5 3,8 - - 8 4 E 1032,1 24 0 0,0
23.03.2019 17:00:00 10,3 4,4 - - 13 7 E 1032,0 23 0 0,0
23.03.2019 16:00:00 10,8 5,8 - - 13 7 E 1031,9 22 0 0,0
23.03.2019 15:00:00 11,0 6,7 - - 11 6 ENE 1031,9 23 0 0,0
23.03.2019 14:00:00 11,2 7,3 - - 11 6 ENE 1032,0 35 0 0,0
23.03.2019 13:00:00 10,9 7,4 - - 11 6 ENE 1032,0 16 0 0,0
23.03.2019 12:00:00 11,2 7,5 - - 9 5 NE 1032,0 11 0 0,0
23.03.2019 11:00:00 11,5 7,8 - - 13 7 NNE 1031,7 11 0 0,0
23.03.2019 10:00:00 10,8 8,3 - - 5 3 ENE 1031,6 10 0 0,0
23.03.2019 09:00:00 9,5 7,8 9,7 9,2 5 3 NNE 1031,2 8 0 0,0
23.03.2019 08:00:00 9,0 7,8 - - 8 4 NNE 1030,8 7 0 0,0
23.03.2019 07:00:00 8,3 7,7 - - 5 3 N 1030,5 3,1 0 0,0
23.03.2019 06:00:00 8,2 7,8 - - 8 4 NNW 1029,9 2,9 0 0,0
23.03.2019 05:00:00 7,9 7,7 - - 4 2 NW 1029,6 2,3 0 0,0
23.03.2019 04:00:00 7,5 7,3 - - 4 2 WNW 1029,3 1,4 0 0,0
23.03.2019 03:00:00 7,0 6,5 - - 4 2 WNW 1029,2 1,7 0 0,0
23.03.2019 02:00:00 7,8 6,8 - - 4 2 E 1029,1 2,5 0 0,0
23.03.2019 01:00:00 8,6 7,8 - - 5 3 WSW 1029,1 3,1 0 0,0
23.03.2019 00:00:00 8,6 7,8 - - 5 3 W 1029,1 3,5 - 0,0
22.03.2019 23:00:00 8,4 7,6 - - 5 3 W 1029,1 4,5 0 0,0
22.03.2019 22:00:00 8,6 7,3 - - 5 3 SW 1028,7 4,8 0 0,0
22.03.2019 21:00:00 8,6 7,3 - - 4 2 WSW 1028,9 5 0 0,0
22.03.2019 20:00:00 8,7 7,1 - - 4 2 WSW 1028,7 6 0 0,0
22.03.2019 19:00:00 8,8 6,7 - - 8 4 W 1028,6 9 0 0,0
22.03.2019 18:00:00 9,0 6,1 - - 9 5 W 1027,9 12 0 0,0
22.03.2019 17:00:00 9,3 7,5 - - 9 5 WSW 1027,8 6 0 0,0
22.03.2019 16:00:00 9,1 7,7 - - 9 5 W 1027,9 4,3 0 0,0
22.03.2019 15:00:00 9,2 7,6 - - 9 5 WSW 1028,2 3,8 0 0,0
22.03.2019 14:00:00 9,3 7,6 - - 11 6 WSW 1028,4 4,6 0 0,0
22.03.2019 13:00:00 9,5 7,7 - - 9 5 SW 1028,8 5 0 0,0
22.03.2019 12:00:00 9,4 7,3 - - 9 5 WSW 1029,4 6 0 0,0
22.03.2019 11:00:00 9,2 7,2 - - 9 5 WSW 1029,7 7 0 0,0
22.03.2019 10:00:00 9,0 7,1 - - 9 5 WSW 1029,9 9 0 0,0
22.03.2019 09:00:00 8,8 7,4 9,7 9,0 9 5 SW 1029,9 7 0 0,0
22.03.2019 08:00:00 8,5 7,4 - - 8 4 SSW 1030,1 7 0 0,0
22.03.2019 07:00:00 8,1 7,3 - - 8 4 SW 1030,0 4,9 0 0,0
22.03.2019 06:00:00 7,9 6,8 - - 4 2 SW 1030,0 7 0 0,0
22.03.2019 05:00:00 7,9 6,8 - - 5 3 SW 1030,3 7 0 0,0
22.03.2019 04:00:00 7,8 6,6 - - 5 3 SW 1030,4 7 0 0,0
22.03.2019 03:00:00 7,9 6,4 - - 11 6 SW 1030,8 8 0 0,0
22.03.2019 02:00:00 8,1 6,9 - - 8 4 S 1031,0 8 0 0,0
22.03.2019 01:00:00 8,1 7,6 - - 5 3 S 1031,1 5 0 0,0
22.03.2019 00:00:00 7,6 6,9 - - 2 1 SSE 1031,6 4,6 - 0,0
21.03.2019 23:00:00 8,8 8,0 - - 4 2 E 1032,1 4,0 0 0,0
21.03.2019 22:00:00 9,2 8,2 - - 2 1 E 1032,5 6 0 0,0
21.03.2019 21:00:00 9,4 8,2 - - 4 2 SSW 1032,7 6 0 0,0
21.03.2019 20:00:00 9,9 8,0 - - 2 1 WNW 1032,9 10 0 0,0
21.03.2019 19:00:00 10,3 8,1 - - 2 1 W 1032,7 11 0 0,0
21.03.2019 18:00:00 10,8 8,2 - - 2 1 WSW 1032,6 12 0 0,0
21.03.2019 17:00:00 11,2 8,6 - - 5 3 SW 1032,5 12 0 0,0
21.03.2019 16:00:00 11,7 8,7 - - 5 3 WSW 1032,5 14 0 0,0
21.03.2019 15:00:00 12,1 8,7 - - 5 3 W 1032,7 18 0 0,0
21.03.2019 14:00:00 12,5 8,3 - - 4 2 W 1033,3 22 0 0,0
21.03.2019 13:00:00 12,2 8,3 - - 8 4 W 1034,0 21 0 0,0
21.03.2019 12:00:00 11,7 8,1 - - 8 4 WSW 1034,4 23 0 0,0
21.03.2019 11:00:00 11,1 8,1 - - 8 4 W 1034,6 30 0 0,0
21.03.2019 10:00:00 10,7 7,8 - - 8 4 W 1034,5 25 0 0,0
21.03.2019 09:00:00 9,9 8,7 9,5 8,9 5 3 W 1034,6 14 0 0,0
21.03.2019 08:00:00 9,4 8,6 - - 4 2 WSW 1034,3 10 0 0,0
21.03.2019 07:00:00 8,9 8,2 - - 8 4 SW 1034,0 6 0 0,0
21.03.2019 06:00:00 8,6 7,6 - - 5 3 SW 1033,7 8 0 0,0
21.03.2019 05:00:00 8,7 7,2 - - 8 4 SW 1033,7 10 0 0,0
21.03.2019 04:00:00 8,8 7,2 - - 9 5 W 1033,5 18 0 0,0
21.03.2019 03:00:00 8,7 7,3 - - 9 5 W 1033,5 19 0 0,0
21.03.2019 02:00:00 8,8 7,5 - - 8 4 W 1033,8 25 0 0,0
21.03.2019 01:00:00 8,5 7,6 - - 9 5 WSW 1034,0 12 0 0,0
21.03.2019 00:00:00 8,4 7,6 - - 11 6 WSW 1034,5 8 - 0,0
20.03.2019 23:00:00 8,9 7,7 - - 11 6 W 1034,4 10 0 0,0
20.03.2019 22:00:00 9,1 8,0 - - 9 5 W 1034,3 14 0 0,0
20.03.2019 21:00:00 9,3 7,8 - - 9 5 W 1034,4 27 0 0,0
20.03.2019 20:00:00 9,4 8,3 - - 9 5 WSW 1034,2 4,4 0 0,0
20.03.2019 19:00:00 9,8 8,0 - - 9 5 WSW 1034,0 28 0 0,0
20.03.2019 18:00:00 10,0 7,6 - - 11 6 W 1033,6 50 0 0,0
20.03.2019 17:00:00 10,4 7,7 - - 11 6 W 1033,5 50 0 0,0
20.03.2019 16:00:00 11,0 7,8 - - 11 6 W 1033,4 50 0 0,0
20.03.2019 15:00:00 11,9 8,9 - - 9 5 W 1033,3 40 6 0,0
20.03.2019 14:00:00 12,7 8,9 - - 15 8 WSW 1033,5 35 30 0,0
20.03.2019 13:00:00 13,5 8,4 - - 11 6 WSW 1033,3 45 18 0,0
20.03.2019 12:00:00 12,9 8,7 - - 9 5 W 1033,7 22 0 0,0
20.03.2019 11:00:00 11,2 9,0 - - 8 4 W 1033,6 24 0 0,0
20.03.2019 10:00:00 10,8 9,7 - - 8 4 W 1033,4 11 0 0,0
20.03.2019 09:00:00 9,9 9,5 9,0 8,7 8 4 W 1033,3 7 0 0,0
20.03.2019 08:00:00 9,3 9,2 - - 9 5 WSW 1032,8 5 0 0,0
20.03.2019 07:00:00 8,9 8,8 - - 5 3 WSW 1032,4 2,5 0 0,0
20.03.2019 06:00:00 8,6 8,5 - - 5 3 W 1031,9 3,2 0 0,0
20.03.2019 05:00:00 8,2 8,1 - - 4 2 WSW 1031,5 5 0 0,0
20.03.2019 04:00:00 7,5 7,4 - - 4 2 W 1031,3 3,0 0 0,0
20.03.2019 03:00:00 6,7 6,4 - - 2 1 S 1031,4 2,2 0 0,0
20.03.2019 02:00:00 7,2 6,9 - - 4 2 SW 1031,4 3,1 0 0,0
20.03.2019 01:00:00 7,8 7,5 - - 5 3 W 1031,5 4,3 0 0,0
20.03.2019 00:00:00 7,4 7,0 - - 8 4 W 1031,3 4,3 - 0,0
19.03.2019 23:00:00 8,1 7,5 - - 8 4 W 1031,1 3,9 0 0,0
19.03.2019 22:00:00 9,0 8,2 - - 9 5 W 1030,9 8 0 0,0
19.03.2019 21:00:00 9,0 8,1 - - 9 5 WSW 1030,4 8 0 0,0
19.03.2019 20:00:00 9,1 8,1 - - 8 4 WSW 1030,3 9 0 0,0
19.03.2019 19:00:00 9,3 8,0 - - 11 6 W 1030,0 13 0 0,0
19.03.2019 18:00:00 9,6 7,2 - - 11 6 W 1029,1 35 0 0,0
19.03.2019 17:00:00 10,1 6,7 - - 11 6 W 1029,0 40 0 0,0
19.03.2019 16:00:00 10,3 6,2 - - 15 8 W 1028,5 45 0 0,0
19.03.2019 15:00:00 11,0 6,4 - - 15 8 W 1028,4 35 0 0,0
19.03.2019 14:00:00 10,7 6,7 - - 13 7 WSW 1028,4 19 0 0,0
19.03.2019 13:00:00 11,5 6,5 - - 13 7 W 1028,4 29 6 0,0
19.03.2019 12:00:00 11,8 7,4 - - 13 7 WSW 1028,3 25 36 0,0
19.03.2019 11:00:00 11,8 6,0 - - 13 7 WSW 1028,1 50 42 0,0
19.03.2019 10:00:00 10,8 9,2 - - 5 3 W 1028,0 14 54 0,0

tt = Température de l'air
td = dewpoint
tt -20cm = Température de l'air -20cm
tt -100cm = Température de l'air -100cm
ff = Vitesse du vent
dd = Direction du vent
ppp = reduced air pressure
vv = visibility
sd = Ensoleillement
rr = Quantités de précipitations

stations d'obs. à proximité